Grub im Wienerwald
Wetterdaten: aktuell Dienstag, 12.11.2019 12:00
Datum Zeit Temp. A. Feuchte A. Luftdruck Regen Wind Richtung Richtung Sonnenschein UV Solar Taupunkt Windchill Windben
12.11.2019 12:00 5,8 C 85 % 1008,6 hPa 0,0 l/m 5,7 km/h N-NW 331 0 min 0,0 UV-I 42 W/m 3,5 C 5,8 C 12,9 km/h
12.11.2019 11:57 5,9 C 85 % 1008,5 hPa 0,0 l/m 4,3 km/h NW 325 0 min 0,0 UV-I 39 W/m 3,6 C 5,9 C 8,0 km/h
12.11.2019 11:54 5,9 C 85 % 1008,5 hPa 0,0 l/m 3,5 km/h NW 325 0 min 0,0 UV-I 39 W/m 3,6 C 5,9 C 8,0 km/h
12.11.2019 11:51 5,9 C 85 % 1008,6 hPa 0,0 l/m 4,5 km/h NW 325 0 min 0,0 UV-I 39 W/m 3,6 C 5,9 C 9,7 km/h
12.11.2019 11:48 6,0 C 85 % 1008,7 hPa 0,0 l/m 5,9 km/h NW 325 0 min 0,0 UV-I 53 W/m 3,7 C 6,0 C 8,0 km/h
12.11.2019 11:45 6,0 C 85 % 1008,7 hPa 0,0 l/m 3,1 km/h NW 325 0 min 0,0 UV-I 53 W/m 3,7 C 6,0 C 6,4 km/h
12.11.2019 11:42 6,1 C 85 % 1008,8 hPa 0,0 l/m 2,1 km/h NW 325 0 min 0,0 UV-I 58 W/m 3,8 C 6,1 C 4,8 km/h
12.11.2019 11:39 6,1 C 85 % 1008,8 hPa 0,0 l/m 2,9 km/h NW 325 0 min 0,0 UV-I 54 W/m 3,8 C 6,1 C 9,7 km/h
12.11.2019 11:36 6,1 C 85 % 1008,8 hPa 0,0 l/m 3,1 km/h NW 325 0 min 0,0 UV-I 60 W/m 3,8 C 6,1 C 6,4 km/h
12.11.2019 11:33 6,1 C 85 % 1008,8 hPa 0,0 l/m 4,4 km/h NW 325 0 min 0,0 UV-I 67 W/m 3,8 C 6,1 C 8,0 km/h
12.11.2019 11:30 6,1 C 85 % 1008,8 hPa 0,0 l/m 3,7 km/h NW 325 0 min 0,0 UV-I 72 W/m 3,8 C 6,1 C 9,7 km/h
12.11.2019 11:27 6,1 C 85 % 1008,8 hPa 0,0 l/m 7,5 km/h N-NW 331 0 min 0,6 UV-I 81 W/m 3,8 C 5,2 C 12,9 km/h
12.11.2019 11:24 6,1 C 85 % 1008,9 hPa 0,0 l/m 6,5 km/h NW 309 0 min 0,7 UV-I 109 W/m 3,8 C 6,0 C 12,9 km/h
12.11.2019 11:21 6,1 C 85 % 1009,0 hPa 0,0 l/m 7,8 km/h NW 310 0 min 0,8 UV-I 127 W/m 3,8 C 4,9 C 14,5 km/h
12.11.2019 11:18 6,1 C 85 % 1009,0 hPa 0,0 l/m 5,7 km/h N-NW 336 0 min 0,8 UV-I 121 W/m 3,8 C 6,1 C 9,7 km/h
12.11.2019 11:15 6,0 C 85 % 1009,0 hPa 0,0 l/m 5,2 km/h N-NW 337 0 min 0,8 UV-I 130 W/m 3,7 C 6,0 C 11,3 km/h
12.11.2019 11:12 6,0 C 85 % 1009,1 hPa 0,0 l/m 3,5 km/h N-NW 337 0 min 0,8 UV-I 130 W/m 3,7 C 6,0 C 8,0 km/h
12.11.2019 11:09 5,9 C 85 % 1009,1 hPa 0,0 l/m 1,9 km/h N-NW 337 0 min 0,8 UV-I 120 W/m 3,6 C 5,9 C 8,0 km/h
12.11.2019 11:06 5,9 C 85 % 1009,2 hPa 0,0 l/m 3,1 km/h N-NW 337 0 min 0,7 UV-I 114 W/m 3,6 C 5,9 C 11,3 km/h
12.11.2019 11:03 5,9 C 85 % 1009,2 hPa 0,0 l/m 8,8 km/h N-NW 338 0 min 0,7 UV-I 104 W/m 3,6 C 3,9 C 14,5 km/h
12.11.2019 11:00 5,9 C 85 % 1009,1 hPa 0,0 l/m 6,8 km/h NW 322 0 min 0,7 UV-I 97 W/m 3,6 C 5,6 C 17,7 km/h
12.11.2019 10:57 5,8 C 85 % 1009,1 hPa 0,0 l/m 10,1 km/h N-NW 327 0 min 0,7 UV-I 98 W/m 3,5 C 2,9 C 17,7 km/h
12.11.2019 10:54 5,8 C 85 % 1009,2 hPa 0,0 l/m 8,5 km/h NW 321 0 min 0,7 UV-I 100 W/m 3,5 C 4,0 C 12,9 km/h
12.11.2019 10:51 5,8 C 85 % 1009,1 hPa 0,0 l/m 7,5 km/h W-NW 294 0 min 0,8 UV-I 109 W/m 3,5 C 4,9 C 14,5 km/h
12.11.2019 10:48 5,7 C 86 % 1009,3 hPa 0,0 l/m 4,6 km/h NW 306 0 min 0,7 UV-I 95 W/m 3,5 C 5,7 C 14,5 km/h
12.11.2019 10:45 5,7 C 86 % 1009,4 hPa 0,0 l/m 2,9 km/h NW 317 0 min 0,0 UV-I 63 W/m 3,5 C 5,7 C 11,3 km/h
12.11.2019 10:42 5,7 C 86 % 1009,6 hPa 0,0 l/m 5,6 km/h NW 317 0 min 0,6 UV-I 65 W/m 3,5 C 5,7 C 11,3 km/h
12.11.2019 10:39 5,6 C 87 % 1009,6 hPa 0,0 l/m 4,1 km/h NW 321 0 min 0,0 UV-I 67 W/m 3,6 C 5,6 C 11,3 km/h
12.11.2019 10:36 5,5 C 87 % 1009,7 hPa 0,0 l/m 5,3 km/h N-NW 332 0 min 0,0 UV-I 67 W/m 3,5 C 5,5 C 11,3 km/h
12.11.2019 10:33 5,4 C 88 % 1009,7 hPa 0,0 l/m 4,0 km/h N-NW 339 0 min 0,6 UV-I 69 W/m 3,6 C 5,4 C 9,7 km/h
12.11.2019 10:30 5,3 C 89 % 1009,6 hPa 0,0 l/m 5,8 km/h N-NW 339 0 min 0,6 UV-I 76 W/m 3,6 C 5,3 C 9,7 km/h
12.11.2019 10:27 5,3 C 89 % 1009,7 hPa 0,0 l/m 1,7 km/h N 355 0 min 0,6 UV-I 91 W/m 3,6 C 5,3 C 4,8 km/h
12.11.2019 10:24 5,2 C 89 % 1009,7 hPa 0,0 l/m 2,5 km/h N 355 0 min 0,6 UV-I 95 W/m 3,5 C 5,2 C 4,8 km/h
12.11.2019 10:21 5,2 C 89 % 1009,6 hPa 0,0 l/m 4,6 km/h N 355 0 min 0,6 UV-I 81 W/m 3,5 C 5,2 C 8,0 km/h
12.11.2019 10:18 5,1 C 90 % 1009,5 hPa 0,0 l/m 4,0 km/h N 355 0 min 0,0 UV-I 70 W/m 3,6 C 5,1 C 8,0 km/h
12.11.2019 10:15 5,1 C 90 % 1009,6 hPa 0,0 l/m 6,3 km/h N 355 0 min 0,0 UV-I 56 W/m 3,6 C 5,1 C 16,1 km/h
12.11.2019 10:12 5,1 C 90 % 1009,7 hPa 0,0 l/m 4,0 km/h N 5 0 min 0,0 UV-I 53 W/m 3,6 C 5,1 C 6,4 km/h
12.11.2019 10:09 5,1 C 90 % 1009,7 hPa 0,0 l/m 5,6 km/h N 5 0 min 0,0 UV-I 53 W/m 3,6 C 5,1 C 9,7 km/h
12.11.2019 10:06 5,0 C 91 % 1009,7 hPa 0,0 l/m 2,9 km/h N 9 0 min 0,0 UV-I 63 W/m 3,7 C 5,0 C 6,4 km/h
12.11.2019 10:03 4,9 C 91 % 1009,8 hPa 0,0 l/m 0,0 km/h N 9 0 min 0,0 UV-I 72 W/m 3,6 C 4,9 C 0,0 km/h
12.11.2019 10:00 4,9 C 91 % 1009,8 hPa 0,0 l/m 0,0 km/h N 9 0 min 0,0 UV-I 62 W/m 3,6 C 4,9 C 0,0 km/h
12.11.2019 09:57 4,8 C 91 % 1009,9 hPa 0,0 l/m 0,0 km/h N 9 0 min 0,0 UV-I 62 W/m 3,5 C 4,8 C 0,0 km/h
12.11.2019 09:54 4,8 C 90 % 1010,0 hPa 0,0 l/m 0,6 km/h N 9 0 min 0,0 UV-I 67 W/m 3,3 C 4,8 C 3,2 km/h
12.11.2019 09:51 4,8 C 90 % 1010,1 hPa 0,0 l/m 0,1 km/h N 9 0 min 0,0 UV-I 54 W/m 3,3 C 4,8 C 1,6 km/h
12.11.2019 09:48 4,7 C 90 % 1010,1 hPa 0,0 l/m 0,0 km/h N 9 0 min 0,0 UV-I 56 W/m 3,2 C 4,7 C 1,6 km/h
12.11.2019 09:45 4,7 C 90 % 1010,1 hPa 0,0 l/m 0,9 km/h N 9 0 min 0,0 UV-I 56 W/m 3,2 C 4,7 C 4,8 km/h
12.11.2019 09:42 4,7 C 91 % 1010,1 hPa 0,0 l/m 0,4 km/h N 9 0 min 0,0 UV-I 53 W/m 3,4 C 4,7 C 3,2 km/h
12.11.2019 09:39 4,7 C 91 % 1010,1 hPa 0,0 l/m 0,2 km/h N 9 0 min 0,0 UV-I 40 W/m 3,4 C 4,7 C 1,6 km/h
12.11.2019 09:36 4,6 C 91 % 1010,1 hPa 0,0 l/m 1,6 km/h N 9 0 min 0,0 UV-I 35 W/m 3,3 C 4,6 C 4,8 km/h
12.11.2019 09:33 4,6 C 91 % 1010,2 hPa 0,0 l/m 0,6 km/h N 9 0 min 0,0 UV-I 30 W/m 3,3 C 4,6 C 3,2 km/h
12.11.2019 09:30 4,6 C 90 % 1010,1 hPa 0,0 l/m 0,1 km/h N 9 0 min 0,0 UV-I 30 W/m 3,1 C 4,6 C 1,6 km/h
12.11.2019 09:27 4,6 C 90 % 1010,1 hPa 0,0 l/m 0,0 km/h N 9 0 min 0,0 UV-I 30 W/m 3,1 C 4,6 C 0,0 km/h
12.11.2019 09:24 4,5 C 90 % 1010,0 hPa 0,0 l/m 0,0 km/h N 9 0 min 0,0 UV-I 32 W/m 3,0 C 4,5 C 1,6 km/h
12.11.2019 09:21 4,5 C 90 % 1010,0 hPa 0,0 l/m 0,0 km/h N 9 0 min 0,0 UV-I 33 W/m 3,0 C 4,5 C 0,0 km/h
12.11.2019 09:18 4,4 C 90 % 1010,0 hPa 0,0 l/m 0,0 km/h N 9 0 min 0,0 UV-I 39 W/m 2,9 C 4,4 C 0,0 km/h
12.11.2019 09:15 4,4 C 90 % 1010,0 hPa 0,0 l/m 0,0 km/h N 9 0 min 0,0 UV-I 35 W/m 2,9 C 4,4 C 0,0 km/h
12.11.2019 09:12 4,4 C 90 % 1009,9 hPa 0,0 l/m 0,0 km/h N 9 0 min 0,0 UV-I 33 W/m 2,9 C 4,4 C 0,0 km/h
12.11.2019 09:09 4,4 C 90 % 1009,9 hPa 0,0 l/m 0,0 km/h N 9 0 min 0,0 UV-I 30 W/m 2,9 C 4,4 C 1,6 km/h
12.11.2019 09:06 4,4 C 90 % 1010,0 hPa 0,0 l/m 0,0 km/h N 9 0 min 0,0 UV-I 28 W/m 2,9 C 4,4 C 0,0 km/h
12.11.2019 09:03 4,4 C 90 % 1010,1 hPa 0,0 l/m 0,0 km/h N 9 0 min 0,0 UV-I 30 W/m 2,9 C 4,4 C 0,0 km/h
12.11.2019 09:00 4,4 C 90 % 1010,1 hPa 0,0 l/m 0,0 km/h N 9 0 min 0,0 UV-I 30 W/m 2,9 C 4,4 C 0,0 km/h
12.11.2019 08:57 4,4 C 90 % 1010,1 hPa 0,0 l/m 0,0 km/h N 9 0 min 0,0 UV-I 25 W/m 2,9 C 4,4 C 0,0 km/h
12.11.2019 08:54 4,4 C 90 % 1010,1 hPa 0,0 l/m 0,0 km/h N 9 0 min 0,0 UV-I 21 W/m 2,9 C 4,4 C 0,0 km/h
12.11.2019 08:51 4,3 C 90 % 1010,2 hPa 0,0 l/m 0,0 km/h N 9 0 min 0,0 UV-I 18 W/m 2,8 C 4,3 C 0,0 km/h
12.11.2019 08:48 4,3 C 90 % 1010,1 hPa 0,0 l/m 0,0 km/h N 9 0 min 0,0 UV-I 14 W/m 2,8 C 4,3 C 0,0 km/h
12.11.2019 08:45 4,3 C 90 % 1010,1 hPa 0,0 l/m 0,0 km/h N 9 0 min 0,0 UV-I 12 W/m 2,8 C 4,3 C 0,0 km/h
12.11.2019 08:42 4,3 C 90 % 1010,2 hPa 0,0 l/m 0,0 km/h N 9 0 min 0,0 UV-I 12 W/m 2,8 C 4,3 C 0,0 km/h
12.11.2019 08:39 4,3 C 90 % 1010,2 hPa 0,0 l/m 0,0 km/h N 9 0 min 0,0 UV-I 12 W/m 2,8 C 4,3 C 0,0 km/h
12.11.2019 08:36 4,3 C 90 % 1010,2 hPa 0,0 l/m 0,0 km/h N 9 0 min 0,0 UV-I 12 W/m 2,8 C 4,3 C 0,0 km/h
12.11.2019 08:33 4,3 C 90 % 1010,2 hPa 0,0 l/m 0,0 km/h N 9 0 min 0,0 UV-I 11 W/m 2,8 C 4,3 C 0,0 km/h
12.11.2019 08:30 4,3 C 90 % 1010,2 hPa 0,0 l/m 0,0 km/h N 9 0 min 0,0 UV-I 11 W/m 2,8 C 4,3 C 0,0 km/h
12.11.2019 08:27 4,3 C 90 % 1010,1 hPa 0,0 l/m 0,0 km/h N 9 0 min 0,0 UV-I 11 W/m 2,8 C 4,3 C 0,0 km/h
12.11.2019 08:24 4,3 C 90 % 1010,2 hPa 0,0 l/m 0,9 km/h N 9 0 min 0,0 UV-I 11 W/m 2,8 C 4,3 C 3,2 km/h
12.11.2019 08:21 4,2 C 90 % 1010,2 hPa 0,0 l/m 0,0 km/h N 9 0 min 0,0 UV-I 11 W/m 2,7 C 4,2 C 0,0 km/h
12.11.2019 08:18 4,3 C 90 % 1010,1 hPa 0,0 l/m 0,0 km/h N 9 0 min 0,0 UV-I 11 W/m 2,8 C 4,3 C 0,0 km/h
12.11.2019 08:15 4,2 C 90 % 1010,2 hPa 0,0 l/m 0,0 km/h N 9 0 min 0,0 UV-I 11 W/m 2,7 C 4,2 C 0,0 km/h
12.11.2019 08:12 4,2 C 90 % 1010,2 hPa 0,0 l/m 0,0 km/h N 9 0 min 0,0 UV-I 12 W/m 2,7 C 4,2 C 0,0 km/h
12.11.2019 08:09 4,2 C 90 % 1010,2 hPa 0,0 l/m 0,0 km/h N 9 0 min 0,0 UV-I 12 W/m 2,7 C 4,2 C 0,0 km/h
12.11.2019 08:06 4,2 C 90 % 1010,2 hPa 0,0 l/m 0,0 km/h N 9 0 min 0,0 UV-I 12 W/m 2,7 C 4,2 C 0,0 km/h
12.11.2019 08:03 4,2 C 90 % 1010,2 hPa 0,0 l/m 0,0 km/h N 9 0 min 0,0 UV-I 11 W/m 2,7 C 4,2 C 0,0 km/h
12.11.2019 08:00 4,2 C 90 % 1010,2 hPa 0,0 l/m 0,0 km/h N 9 0 min 0,0 UV-I 9 W/m 2,7 C 4,2 C 0,0 km/h
12.11.2019 07:57 4,2 C 90 % 1010,2 hPa 0,0 l/m 0,0 km/h N 9 0 min 0,0 UV-I 7 W/m 2,7 C 4,2 C 0,0 km/h
12.11.2019 07:54 4,2 C 90 % 1010,2 hPa 0,0 l/m 0,0 km/h N 9 0 min 0,0 UV-I 7 W/m 2,7 C 4,2 C 0,0 km/h
12.11.2019 07:51 4,2 C 90 % 1010,1 hPa 0,0 l/m 0,0 km/h N 9 0 min 0,0 UV-I 7 W/m 2,7 C 4,2 C 0,0 km/h
12.11.2019 07:48 4,2 C 90 % 1010,1 hPa 0,0 l/m 0,3 km/h N 9 0 min 0,0 UV-I 5 W/m 2,7 C 4,2 C 1,6 km/h
12.11.2019 07:45 4,2 C 90 % 1010,2 hPa 0,0 l/m 0,3 km/h N 9 0 min 0,0 UV-I 5 W/m 2,7 C 4,2 C 3,2 km/h
12.11.2019 07:42 4,2 C 90 % 1010,2 hPa 0,0 l/m 0,0 km/h N 9 0 min 0,0 UV-I 5 W/m 2,7 C 4,2 C 0,0 km/h
12.11.2019 07:39 4,2 C 90 % 1010,3 hPa 0,0 l/m 0,0 km/h N 9 0 min 0,0 UV-I 5 W/m 2,7 C 4,2 C 0,0 km/h
12.11.2019 07:36 4,2 C 90 % 1010,3 hPa 0,0 l/m 0,0 km/h N 9 0 min 0,0 UV-I 5 W/m 2,7 C 4,2 C 0,0 km/h
12.11.2019 07:33 4,2 C 90 % 1010,3 hPa 0,0 l/m 0,0 km/h N 9 0 min 0,0 UV-I 5 W/m 2,7 C 4,2 C 0,0 km/h
12.11.2019 07:30 4,1 C 90 % 1010,3 hPa 0,0 l/m 0,0 km/h N 9 0 min 0,0 UV-I 5 W/m 2,6 C 4,1 C 0,0 km/h
_ Min-Zeit 06:51 13:21 11:54 - 03:42 - - - - - 07:12 22:18 03:42
Minimum _ 4,1 C 77 % 1008,5 hPa - 0,0 km/h - - - - - 2,5 C -2,3 C 0,0 km/h
_ Max-Zeit 13:18 04:09 13:00 13:00 22:18 - - 13:00 13:00 13:00 00:45 13:06 19:09
Maximum _ 8,8 C 93 % 1012,3 hPa 0,0 l/m 22,5 km/h
SO
- - 3 min 1,5 UV-I 373 W/m 5,5 C 8,6 C 43,5 km/h
SO
Durchschnitt _ 6,2 C 88 % 1010,1 hPa #0,0 l/m 7,6 km/h SO - #0 min. 0,7 UV-I 48 W/m 4,3 C 4,3 C 15,0 km/h
Schulla EDV